Regional Weather Roundup
Issued by NWS Cleveland, OH

Home | Current Version | Previous Version | Graphics & Text | Print | Product List | Glossary On
Versions: 1 2 3 4 5 6 7 8 9 10 11 12 13 14 15 16 17 18 19 20 21 22 23 24 25 26 27 28 29 30 31 32 33 34 35 36 37 38 39 40 41 42 43 44 45 46 47 48 49 50
000
ASUS41 KCLE 220910
RWRCLE
OHIO REGIONAL WEATHER ROUNDUP
NATIONAL WEATHER SERVICE WILMINGTON, OH
400 AM EST WED FEB 22 2017

NOTE: "FAIR" INDICATES FEW OR NO CLOUDS BELOW 12,000 FEET WITH NO
SIGNIFICANT WEATHER AND/OR OBSTRUCTIONS TO VISIBILITY.

OHZ001>008-015>018-024>027-034-035-043-044-221000-
   NORTHWEST OHIO

CITY           SKY/WX    TMP DP  RH WIND       PRES   REMARKS
DEFIANCE       CLOUDY    52  49  89 SW6       29.88S
FINDLAY        CLOUDY    53  49  86 S3        29.88F
TOLEDO EXPRESS CLOUDY    52  50  93 SW6       29.88R
TOLEDO EXEC    CLOUDY    52  50  93 S7        29.89S
LIMA           CLOUDY    55  54  96 S9        29.90F FOG
$$

OHZ009>014-019>023-028>033-038-089-221000-
   NORTHEAST OHIO

CITY           SKY/WX    TMP DP  RH WIND       PRES   REMARKS
CLE-HOPKINS    CLOUDY    57  47  69 S8        29.93F
CLE-LAKEFRONT  CLOUDY    58  48  69 S8        29.89F
CUY CO. ARPT   NOT AVBL
LORAIN-ELYRIA  MOCLDY    52  45  77 S6        29.91F
ASHTABULA      CLOUDY    51  45  79 CALM      29.92S
AKRON-CANTON   CLOUDY    53  46  77 CALM      29.92S
WOOSTER        CLOUDY    47  44  90 CALM      29.92S
MANSFIELD      CLOUDY    55  52  89 SW5       29.92S
YOUNGSTOWN     CLOUDY    55  46  71 W6        29.93F
$$

OHZ042-051>053-060>062-070>072-077>081-221000-
  SOUTHWEST OHIO

CITY           SKY/WX    TMP DP  RH WIND       PRES   REMARKS
CINC-COVINGTON CLOUDY    56  56 100 S8        29.91F FOG
CINC-LUNKEN    LGT RAIN  54  54 100 CALM      29.93S VSB 1
HAMILTON       LGT RAIN  55  55 100 E3        29.93S VSB 3/4
DAYTON         CLOUDY    55  54  96 S8        29.92F FOG
WRIGHT-PAT AFB CLOUDY    54  54 100 S3        29.92F
DAYTON GENERAL LGT RAIN  54  54 100 S6        29.91F VSB 1
WILMINGTON     CLOUDY    53  53 100 S6        29.93S FOG
$$

OHZ036-037-039>041-045>050-054>059-063>069-073>076-082>088-221000-
  CENTRAL AND SOUTHEAST OHIO

CITY           SKY/WX    TMP DP  RH WIND       PRES   REMARKS
COLUMBUS       CLOUDY    55  53  93 S3        29.92S
OSU AIRPORT    CLOUDY    54  53  97 SW5       29.92S
BOLTON FIELD   CLOUDY    52  51  97 SW5       29.94S
RICKENBACK AFB CLOUDY    50  50 100 CALM      29.93S FOG
NEWARK         CLOUDY    53  50  89 CALM      29.92S
MARION         CLOUDY    53  50  89 S6        29.92S
LANCASTER      CLOUDY    52  50  93 CALM      29.93S FOG
ZANESVILLE     CLOUDY    52  50  93 CALM      29.93R
NEW PHILLY     CLOUDY    50  47  89 CALM      29.93S
$$




USA.gov is the U.S. government's official web portal to all federal, state and local government web resources and services.